Regional Weather Roundup
Issued by NWS

Home | Current Version | Previous Version | Text Only | Print | Product List | Glossary On
Versions: 1 2 3 4 5 6 7 8 9 10 11 12 13 14 15 16 17 18 19 20 21 22 23 24 25 26 27 28 29 30 31 32 33 34 35 36 37 38 39 40 41 42 43 44 45 46 47 48 49 50
000
ASUS43 KLSX 311559
RWRMO

WEATHER SUMMARY FOR MISSOURI
NATIONAL WEATHER SERVICE SPRINGFIELD MO
1100 AM CDT THU JUL 31 2014

NOTE: "FAIR" INDICATES FEW OR NO CLOUDS BELOW 12,000 FEET WITH NO
       SIGNIFICANT WEATHER AND/OR OBSTRUCTIONS TO VISIBILITY.
       CURRENT SKY AND/OR WEATHER CONDITIONS ARE NOT AVAILABLE FOR
       CHILLICOTHE AND FARMINGTON.

MOZ001>031-035>038-043-044-053-054-311700-
...NORTHERN AND WESTERN MISSOURI...

CITY           SKY/WX    TMP DP  RH WIND       PRES   REMARKS
KANSAS CTY INT PTSUNNY   76  63  64 W6        30.12S
KANSAS C DTWN  PTSUNNY   78  59  51 E3        30.11R
LEE`S SUMMIT   MOSUNNY   77  60  55 CALM      30.12S
ST JOSEPH      SUNNY     76  59  55 W3        30.13R
CHILLICOTHE      N/A     78  59  51 VRB3      30.13R
KIRKSVILLE     SUNNY     78  58  49 W5        30.13R

$$
MOZ066>068-077>081-088>096-101>105-311700-
...SOUTHWEST MISSOURI...

CITY           SKY/WX    TMP DP  RH WIND       PRES   REMARKS
SPRINGFIELD    MOSUNNY   73  61  65 CALM      30.11S
JOPLIN         PTSUNNY   74  64  71 VRB5      30.11S

$$
MOZ032>034-039>042-045>050-055>058-069>072-311700-
...CENTRAL MISSOURI...

CITY           SKY/WX    TMP DP  RH WIND       PRES   REMARKS
COLUMBIA       SUNNY     80  59  48 VRB6      30.11S
JEFFERSON CITY SUNNY     77  60  55 CALM      30.10S
ROLLA          SUNNY     78  57  48 VRB3      30.10S
SEDALIA        SUNNY     80  60  50 S3        30.12R
OSAGE BEACH    SUNNY     79  63  57 CALM      30.11R

$$
MOZ051-052-059>065-311700-
...EAST CENTRAL MISSOURI...

CITY           SKY/WX    TMP DP  RH WIND       PRES   REMARKS
ST LOUIS INTL  MOSUNNY   80  59  48 VRB3      30.10S
SPIRIT OF STL  MOSUNNY   80  60  50 W5        30.09S
ST CHARLES     SUNNY     80  61  52 VRB3      30.10R

$$
MOZ072>076-082>087-097>100-106>115-311700-
...SOUTH CENTRAL AND SOUTHEAST MISSOURI...

CITY           SKY/WX    TMP DP  RH WIND       PRES   REMARKS
CAPE GIRARDEAU PTSUNNY   77  65  66 VRB3      30.11S
FARMINGTON     SUNNY     75  63  64 CALM      30.14S
POPLAR BLUFF   LGT RAIN  69  64  84 S5        30.11R
WEST PLAINS    CLOUDY    72  63  73 SE5       30.13R

$$


USA.gov is the U.S. government's official web portal to all federal, state and local government web resources and services.